Tracking 19854 objects as of 22-Sep-2019
HD Live streaming from Space Station
objects crossing your sky now

COSMOS 249 DEB

Track COSMOS 249 DEB now!
10-day predictions


NORAD ID: 6764
Int'l Code: 1968-091CK
Perigee: 935.3 km
Apogee: 2,113.5 km
Inclination: 62.3 °
Period: 116.4 minutes
Semi major axis: 7895 km
RCS: 0.0142 m2 (small)
Launch date: October 20, 1968
Source: Commonwealth of Independent States (former USSR) (CIS)
Launch site: TYURATAM MISSILE AND SPACE COMPLEX (TTMTR)

Note: This is SATELLITE DEBRIS
aabbcc
Your satellite tracking list
Your tracking list is empty




NASA's NSSDC Master Catalog

Two Line Element Set (TLE):
1  6764U 68091CK  19259.19789681 +.00000857 +00000-0 +27440-2 0  9991
2  6764 062.3451 128.1105 0746132 263.6169 190.2083 12.37482477419934
Source of the keplerian elements: AFSPC